Weather History for Dumas, TX

Change the Weather History Date:

Monday, October 24, 2011

  Actual Average (KBGD) Record (KBGD)
Temperature  
Mean Temperature 68 °F 58 °F  
Max Temperature 86 °F 70 °F 88 °F (2012)
Min Temperature 50 °F 45 °F 28 °F (2005)
Degree Days  
Heating Degree Days 0 8  
Month to date heating degree days 126  
Since 1 July heating degree days 154  
Cooling Degree Days 3 1  
Month to date cooling degree days 48  
Year to date cooling degree days 1833  
Growing Degree Days 18 (Base 50)    
Moisture  
Dew Point 35 °F    
Average Humidity 37    
Maximum Humidity 63    
Minimum Humidity 14    
Precipitation  
Precipitation 0.00 in 0.04 in 0.44 in (1964)
Month to date precipitation 1.42  
Year to date precipitation 19.81  
Snow  
Snow 0.00 in - 0.00 in (2013)
Month to date snowfall  
Since 1 July snowfall  
Since 1 September snowfall  
Snow Depth -    
Sea Level Pressure  
Sea Level Pressure 30.10 in    
Wind  
Wind Speed 15 mph (SSW)    
Max Wind Speed 30 mph    
Max Gust Speed 40 mph    
Visibility 10 miles    
Events      
T = Trace of Precipitation, MM = Missing Value Source: NWS Daily Summary

Daily Weather History Graph

Daily Weather History Graph

Search for Another Location

Airport:

Trip Planner

Search our weather history database for the weather conditions in past years. The results will help you decide how hot, cold, wet, or windy it might be!

Date:

Astronomy

Oct. 24, 2011 Rise Set
Actual Time 8:02 AM CDT 7:01 PM CDT
Civil Twilight 7:36 AM CDT 7:27 PM CDT
Nautical Twilight 7:06 AM CDT 7:57 PM CDT
Astronomical Twilight 6:36 AM CDT 8:27 PM CDT
Moon 5:27 AM CDT (10/24) 5:24 PM CDT (10/24)
Length of Visible Light 11h 51m
Length of Day
10h 58m
Waning Crescent, 7% of the Moon is Illuminated
Oct 24
Waning Crescent
Oct 26
New
Nov 2
First Quarter
Nov 10
Full
Nov 18
Last Quarter

Hourly Weather History & Observations

Time (CDT) Temp. Dew Point Humidity Pressure Visibility Wind Dir Wind Speed Gust Speed Precip Events Conditions
12:15 AM 53.6 °F 30.2 °F 41% 30.17 in 10.0 mi SSW 10.4 mph - N/A   Clear
12:35 AM 53.6 °F 30.2 °F 41% 30.17 in 10.0 mi SSW 10.4 mph - N/A   Clear
12:55 AM 53.6 °F 30.2 °F 41% 30.17 in 10.0 mi SSW 10.4 mph - N/A   Clear
1:15 AM 53.6 °F 30.2 °F 41% 30.16 in 10.0 mi SSW 11.5 mph - N/A   Clear
1:35 AM 55.4 °F 30.2 °F 38% 30.17 in 10.0 mi SSW 10.4 mph - N/A   Clear
1:55 AM 53.6 °F 30.2 °F 41% 30.17 in 10.0 mi SSW 10.4 mph - N/A   Clear
2:15 AM 53.6 °F 30.2 °F 41% 30.16 in 10.0 mi SSW 9.2 mph - N/A   Clear
2:35 AM 51.8 °F 30.2 °F 44% 30.16 in 10.0 mi SSW 11.5 mph - N/A   Clear
2:55 AM 53.6 °F 32.0 °F 44% 30.16 in 10.0 mi SSW 10.4 mph - N/A   Clear
3:15 AM 51.8 °F 32.0 °F 47% 30.16 in 10.0 mi SW 11.5 mph - N/A   Clear
3:35 AM 51.8 °F 32.0 °F 47% 30.16 in 10.0 mi SSW 10.4 mph - N/A   Clear
3:55 AM 53.6 °F 32.0 °F 44% 30.15 in 10.0 mi SSW 11.5 mph - N/A   Clear
4:15 AM 51.8 °F 32.0 °F 47% 30.15 in 10.0 mi SW 12.7 mph - N/A   Clear
4:35 AM 51.8 °F 32.0 °F 47% 30.15 in 10.0 mi SW 13.8 mph - N/A   Clear
4:55 AM 53.6 °F 33.8 °F 47% 30.15 in 10.0 mi SSW 13.8 mph - N/A   Clear
5:15 AM 51.8 °F 33.8 °F 50% 30.15 in 10.0 mi SSW 11.5 mph - N/A   Clear
5:35 AM 51.8 °F 33.8 °F 50% 30.15 in 10.0 mi SSW 11.5 mph - N/A   Clear
5:55 AM 50.0 °F 33.8 °F 54% 30.16 in 10.0 mi SSW 11.5 mph - N/A   Clear
6:15 AM 51.8 °F 33.8 °F 50% 30.16 in 10.0 mi SW 13.8 mph - N/A   Clear
6:35 AM 51.8 °F 33.8 °F 50% 30.16 in 10.0 mi SW 12.7 mph - N/A   Clear
6:55 AM 50.0 °F 35.6 °F 58% 30.17 in 10.0 mi SSW 9.2 mph - N/A   Clear
7:15 AM 50.0 °F 35.6 °F 58% 30.17 in 10.0 mi SSW 10.4 mph - N/A   Clear
7:35 AM 50.0 °F 35.6 °F 58% 30.17 in 10.0 mi SSW 8.1 mph - N/A   Clear
7:55 AM 51.8 °F 37.4 °F 58% 30.17 in 10.0 mi SSW 11.5 mph - N/A   Clear
8:15 AM 51.8 °F 37.4 °F 58% 30.17 in 10.0 mi SSW 12.7 mph - N/A   Clear
8:35 AM 51.8 °F 39.2 °F 62% 30.17 in 10.0 mi SW 11.5 mph - N/A   Clear
8:55 AM 53.6 °F 41.0 °F 62% 30.17 in 10.0 mi SW 12.7 mph - N/A   Clear
9:15 AM 55.4 °F 42.8 °F 63% 30.18 in 10.0 mi SSW 12.7 mph - N/A   Clear
9:35 AM 60.8 °F 42.8 °F 52% 30.18 in 10.0 mi SSW 15.0 mph - N/A   Clear
9:55 AM 60.8 °F 44.6 °F 55% 30.18 in 10.0 mi SSW 17.3 mph - N/A   Clear
10:15 AM 62.6 °F 44.6 °F 52% 30.18 in 10.0 mi SSW 18.4 mph - N/A   Clear
10:35 AM 64.4 °F 44.6 °F 49% 30.18 in 10.0 mi SSW 20.7 mph - N/A   Clear
10:55 AM 68.0 °F 44.6 °F 43% 30.17 in 10.0 mi SSW 20.7 mph - N/A   Clear
11:15 AM 69.8 °F 44.6 °F 40% 30.16 in 10.0 mi SSW 21.9 mph 26.5 mph N/A   Clear
11:35 AM 71.6 °F 44.6 °F 38% 30.15 in 10.0 mi SSW 26.5 mph 31.1 mph N/A   Clear
11:55 AM 73.4 °F 44.6 °F 36% 30.15 in 10.0 mi SSW 23.0 mph - N/A   Clear
12:15 PM 73.4 °F 44.6 °F 36% 30.14 in 10.0 mi SSW 26.5 mph 34.5 mph N/A   Clear
12:35 PM 75.2 °F 44.6 °F 34% 30.13 in 10.0 mi SSW 25.3 mph 31.1 mph N/A   Clear
1:35 PM 80.6 °F 42.8 °F 26% 30.09 in 10.0 mi SSW 27.6 mph 33.4 mph N/A   Clear
1:55 PM 80.6 °F 42.8 °F 26% 30.07 in 10.0 mi SSW 26.5 mph 34.5 mph N/A   Clear
2:15 PM 82.4 °F 41.0 °F 23% 30.07 in 10.0 mi SSW 21.9 mph 35.7 mph N/A   Clear
2:35 PM 82.4 °F 39.2 °F 21% 30.05 in 10.0 mi South 27.6 mph 32.2 mph N/A   Clear
2:55 PM 82.4 °F 37.4 °F 20% 30.03 in 10.0 mi SSW 25.3 mph 36.8 mph N/A   Clear
3:15 PM 84.2 °F 33.8 °F 16% 30.03 in 10.0 mi SSW 24.2 mph 35.7 mph N/A   Clear
3:35 PM 84.2 °F 33.8 °F 16% 30.02 in 10.0 mi SSW 26.5 mph 38.0 mph N/A   Clear
3:55 PM 84.2 °F 33.8 °F 16% 30.01 in 10.0 mi SSW 27.6 mph 40.3 mph N/A   Clear
4:15 PM 86.0 °F 33.8 °F 15% 30.01 in 10.0 mi SSW 27.6 mph 34.5 mph N/A   Clear
4:35 PM 86.0 °F 32.0 °F 14% 30.00 in 10.0 mi SSW 29.9 mph 40.3 mph N/A   Clear
4:55 PM 86.0 °F 32.0 °F 14% 30.00 in 10.0 mi SSW 27.6 mph 33.4 mph N/A   Clear
5:15 PM 82.4 °F 30.2 °F 15% 29.99 in 10.0 mi SW 26.5 mph 35.7 mph N/A   Clear
5:35 PM 80.6 °F 28.4 °F 15% 29.98 in 10.0 mi SSW 20.7 mph 26.5 mph N/A   Clear
5:55 PM 82.4 °F 28.4 °F 14% 29.98 in 10.0 mi SSW 18.4 mph 26.5 mph N/A   Clear
6:15 PM 82.4 °F 30.2 °F 15% 29.98 in 10.0 mi SSW 19.6 mph 24.2 mph N/A   Clear
6:35 PM 80.6 °F 30.2 °F 16% 29.97 in 10.0 mi South 18.4 mph 26.5 mph N/A   Clear
6:55 PM 78.8 °F 30.2 °F 17% 29.97 in 10.0 mi South 17.3 mph 26.5 mph N/A   Clear
7:15 PM 75.2 °F 32.0 °F 21% 29.98 in 10.0 mi South 15.0 mph - N/A   Clear
7:35 PM 73.4 °F 32.0 °F 22% 29.98 in 10.0 mi South 13.8 mph - N/A   Clear
7:55 PM 71.6 °F 32.0 °F 23% 29.98 in 10.0 mi South 13.8 mph - N/A   Clear
8:15 PM 71.6 °F 32.0 °F 23% 29.99 in 10.0 mi South 15.0 mph - N/A   Clear
8:35 PM 69.8 °F 33.8 °F 27% 29.99 in 10.0 mi South 16.1 mph - N/A   Clear
9:15 PM 69.8 °F 33.8 °F 27% 30.00 in 10.0 mi South 17.3 mph - N/A   Clear
9:35 PM 69.8 °F 33.8 °F 27% 30.00 in 10.0 mi South 17.3 mph - N/A   Clear
9:55 PM 69.8 °F 33.8 °F 27% 30.00 in 10.0 mi South 17.3 mph - N/A   Clear
10:15 PM 68.0 °F 33.8 °F 28% 30.01 in 10.0 mi South 16.1 mph - N/A   Clear
10:35 PM 68.0 °F 33.8 °F 28% 30.01 in 10.0 mi South 18.4 mph - N/A   Clear
10:55 PM 68.0 °F 33.8 °F 28% 30.01 in 10.0 mi SSW 17.3 mph - N/A   Clear
11:15 PM 66.2 °F 33.8 °F 30% 30.01 in 10.0 mi SSW 15.0 mph - N/A   Clear
11:35 PM 64.4 °F 33.8 °F 32% 30.00 in 10.0 mi SSW 15.0 mph - N/A   Clear
11:55 PM 64.4 °F 33.8 °F 32% 30.00 in 10.0 mi SSW 12.7 mph - N/A   Clear